[Date Prev][Date Next][Thread Prev][Thread Next] - [Date Index][Thread Index][Author Index]
2 Line ISS Keps 10-29
- Subject: [sarex] 2 Line ISS Keps 10-29
- From: "Dave Larsen PhD" <doc@xxxxxxxxxxx>
- Date: Wed, 29 Oct 2003 02:42:29 -0800
ISS
1 25544U 98067A 03302.10856481 .00035268 00000-0 38433-3 0 7144
2 25544 51.6309 65.1567 0006698 84.9995 271.3863 15.63029047281928
----
Via the sarex mailing list at AMSAT.ORG courtesy of AMSAT-NA.
To unsubscribe, send "unsubscribe sarex" to Majordomo@amsat.org
AMSAT Home